�N����,����,�~����,�C��,���x,�C��,����,���ϕ���,�ő�u�ԕ���,�ő厞����,���˗�,�I�_���x,�n�����x,�ő啗���N��,DTYPE
"22/03/31","00:10",0.0,13.2,84.9,1016.6,314.4,1.2,1.8,314.4,0.00,10.8,13.4,"00:04:06",1
"22/03/31","00:20",0.0,13.1,85.0,1015.9,309.3,0.8,1.2,326.3,0.00,10.7,13.3,"00:19:00",1
"22/03/31","00:30",0.0,13.1,85.2,1015.9,267.4,0.7,1.8,309.3,0.00,10.7,13.4,"00:29:52",1
"22/03/31","00:40",0.0,13.1,85.5,1016.4,317.9,1.7,2.2,322.9,0.00,10.8,13.5,"00:33:24",1
"22/03/31","00:50",0.0,13.2,85.7,1016.4,331.3,1.6,2.4,340.4,0.00,10.9,13.2,"00:45:42",1
"22/03/31","01:00",0.0,13.0,86.1,1016.1,284.0,0.7,1.1,297.6,0.00,10.8,13.5,"00:59:16",1
"22/03/31","01:10",0.0,13.0,86.4,1015.9,298.1,1.2,1.8,309.2,0.00,10.8,13.4,"01:07:32",1
"22/03/31","01:20",0.0,13.0,86.7,1016.1,291.7,1.2,2.0,300.6,0.00,10.9,13.1,"01:19:54",1
"22/03/31","01:30",0.0,13.0,86.9,1015.9,303.1,1.3,1.9,327.5,0.00,10.9,13.2,"01:23:38",1
"22/03/31","01:40",0.0,13.0,87.0,1016.1,291.3,0.7,1.4,303.9,0.00,10.9,13.4,"01:31:46",1
"22/03/31","01:50",0.0,13.0,87.2,1015.6,267.3,0.3,1.0,103.3,0.00,11.0,13.3,"01:47:32",1
"22/03/31","02:00",0.0,13.0,87.4,1015.4,295.1,1.2,1.7,304.7,0.00,11.0,13.2,"01:50:02",1
"22/03/31","02:10",0.0,12.9,87.6,1015.4,330.4,1.5,1.8,335.3,0.00,10.9,13.2,"02:04:44",1
"22/03/31","02:20",0.0,12.8,87.8,1015.2,323.6,1.5,1.9,338.1,0.00,10.9,13.2,"02:10:16",1
"22/03/31","02:30",0.0,12.7,88.0,1015.2,296.5,0.8,1.4,322.1,0.00,10.8,13.3,"02:22:20",1
"22/03/31","02:40",0.0,12.8,88.3,1015.4,303.1,1.6,2.7,319.4,0.00,11.0,13.2,"02:36:18",1
"22/03/31","02:50",0.0,12.8,88.4,1015.2,300.9,1.0,1.9,316.6,0.00,11.0,13.1,"02:48:46",1
"22/03/31","03:00",0.0,12.9,88.5,1015.6,299.7,1.2,2.0,315.3,0.00,11.1,13.1,"02:59:24",1
"22/03/31","03:10",0.0,13.0,88.6,1015.2,322.2,1.3,2.6,325.6,0.00,11.2,13.2,"03:01:18",1
"22/03/31","03:20",0.0,13.1,88.6,1015.2,308.0,1.0,1.7,325.1,0.00,11.3,13.0,"03:10:42",1
"22/03/31","03:30",0.0,13.0,88.7,1015.2,223.2,0.5,1.0,259.5,0.00,11.2,13.1,"03:27:18",1
"22/03/31","03:40",0.0,13.0,88.8,1014.9,272.5,0.7,1.8,301.8,0.00,11.2,13.1,"03:35:54",1
"22/03/31","03:50",0.0,13.1,89.0,1014.9,304.3,1.5,2.7,332.9,0.00,11.4,13.0,"03:47:04",1
"22/03/31","04:00",0.0,13.2,89.1,1014.7,299.0,1.5,2.4,325.9,0.00,11.5,13.0,"03:59:30",1
"22/03/31","04:10",0.0,13.2,89.3,1014.5,322.1,1.3,2.4,313.5,0.00,11.5,13.2,"04:00:48",1
"22/03/31","04:20",0.0,13.2,89.5,1014.7,315.0,1.6,2.1,327.8,0.00,11.6,12.8,"04:19:08",1
"22/03/31","04:30",0.0,13.2,89.8,1015.2,300.0,1.5,2.4,322.9,0.00,11.6,13.1,"04:29:42",1
"22/03/31","04:40",0.0,13.2,90.0,1014.7,299.4,1.5,2.1,320.6,0.00,11.6,13.2,"04:30:08",1
"22/03/31","04:50",0.0,13.2,90.3,1014.7,278.7,1.0,1.4,297.8,0.00,11.7,13.2,"04:49:44",1
"22/03/31","05:00",0.0,13.2,90.4,1014.2,283.0,1.2,2.1,312.1,0.00,11.7,12.9,"04:51:38",1
"22/03/31","05:10",0.0,13.2,90.6,1014.5,293.9,1.1,2.1,341.3,0.00,11.7,13.2,"05:09:56",1
"22/03/31","05:20",0.0,13.2,90.7,1014.7,337.3,1.5,2.2,339.1,0.00,11.8,13.1,"05:10:08",1
"22/03/31","05:30",0.0,13.1,90.9,1014.2,286.2,1.5,2.4,317.9,0.00,11.7,12.8,"05:20:56",1
"22/03/31","05:40",0.0,13.1,91.2,1014.9,315.7,1.3,2.4,329.8,0.00,11.7,12.8,"05:35:56",1
"22/03/31","05:50",0.0,13.2,91.3,1014.7,306.9,1.1,1.7,318.4,0.00,11.9,13.0,"05:40:02",1
"22/03/31","06:00",0.0,13.1,91.4,1014.7,303.0,1.0,1.7,319.4,0.00,11.8,13.1,"05:52:50",1
"22/03/31","06:10",0.0,13.1,91.5,1014.7,281.9,0.7,1.1,288.5,0.00,11.8,12.8,"06:00:56",1
"22/03/31","06:20",0.0,13.2,91.6,1014.2,297.2,1.2,1.8,314.4,0.00,11.9,13.0,"06:14:48",1
"22/03/31","06:30",0.0,13.2,91.7,1014.5,289.7,1.1,2.0,313.3,0.00,11.9,13.0,"06:29:22",1
"22/03/31","06:40",0.0,13.3,91.8,1014.5,314.6,1.5,1.9,324.4,0.00,12.0,12.9,"06:31:04",1
"22/03/31","06:50",0.0,13.3,91.8,1014.5,318.4,1.1,1.8,345.9,0.00,12.0,12.9,"06:42:26",1
"22/03/31","07:00",0.0,13.4,91.9,1014.0,287.1,0.7,1.2,319.4,0.00,12.2,13.0,"06:57:06",1
"22/03/31","07:10",0.0,13.5,92.0,1014.2,335.5,1.3,2.2,339.0,0.00,12.3,12.7,"07:09:12",1
"22/03/31","07:20",0.0,13.6,92.0,1014.2,332.5,1.6,2.5,338.4,0.00,12.4,12.8,"07:13:58",1
"22/03/31","07:30",0.0,13.6,92.1,1014.5,297.6,0.8,1.4,325.6,0.01,12.4,12.9,"07:23:14",1
"22/03/31","07:40",0.2,13.8,92.2,1014.2,285.8,1.1,1.4,267.7,0.02,12.6,13.0,"07:33:52",1
"22/03/31","07:50",0.0,13.8,92.2,1014.9,292.0,1.1,1.8,307.4,0.01,12.6,12.8,"07:40:16",1
"22/03/31","08:00",0.2,13.9,92.3,1014.5,300.9,0.7,1.4,299.0,0.01,12.7,12.9,"07:50:32",1
"22/03/31","08:10",0.0,14.0,92.4,1014.2,314.6,0.8,1.6,322.0,0.02,12.8,12.8,"08:03:04",1
"22/03/31","08:20",0.0,14.2,92.5,1014.7,298.5,1.1,1.8,333.6,0.06,13.0,13.0,"08:18:56",1
"22/03/31","08:30",0.0,14.6,92.6,1014.5,290.7,1.1,1.7,316.1,0.08,13.5,13.0,"08:22:16",1
"22/03/31","08:40",0.0,14.5,92.5,1014.5,291.6,0.8,1.3,260.5,0.04,13.3,13.0,"08:33:44",1
"22/03/31","08:50",0.0,14.4,92.6,1014.2,329.3,1.3,2.0,336.5,0.02,13.3,12.9,"08:43:44",1
"22/03/31","09:00",0.0,14.5,92.6,1014.7,322.1,1.1,1.7,320.2,0.02,13.4,13.0,"08:56:56",1
"22/03/31","09:10",0.0,14.5,92.7,1014.5,295.5,1.0,1.4,326.4,0.02,13.4,13.0,"09:04:08",1
"22/03/31","09:20",0.0,14.7,92.7,1014.5,289.0,0.8,1.3,321.0,0.05,13.6,13.0,"09:16:00",1
"22/03/31","09:30",0.0,14.8,92.6,1014.5,321.2,0.7,1.3,319.5,0.03,13.7,13.0,"09:27:12",1
"22/03/31","09:40",0.0,14.8,92.6,1014.2,292.1,0.7,1.1,312.1,0.03,13.7,13.0,"09:30:40",1
"22/03/31","09:50",0.0,15.0,92.5,1014.5,275.4,0.6,1.3,270.6,0.05,13.8,13.0,"09:49:38",1
"22/03/31","10:00",0.0,15.0,92.5,1014.5,305.6,1.0,1.3,302.5,0.03,13.8,12.9,"09:50:56",1
"22/03/31","10:10",0.0,14.8,92.5,1014.5,326.6,1.6,1.9,321.7,0.03,13.6,13.1,"10:00:40",1
"22/03/31","10:20",0.0,14.7,92.5,1014.0,319.7,1.0,1.7,335.3,0.01,13.5,13.1,"10:10:08",1
"22/03/31","10:30",0.0,14.8,92.5,1014.9,325.6,1.3,1.9,339.7,0.01,13.6,12.9,"10:29:28",1
"22/03/31","10:40",0.6,14.7,92.6,1014.7,310.4,0.8,1.6,339.0,0.04,13.6,13.2,"10:30:08",1
"22/03/31","10:50",0.2,15.1,92.6,1014.5,328.3,0.8,1.3,341.2,0.10,14.0,13.2,"10:47:20",1
"22/03/31","11:00",0.2,15.1,92.6,1014.2,322.8,1.0,1.9,338.4,0.07,14.0,13.2,"10:50:32",1
"22/03/31","11:10",0.2,15.1,92.8,1014.2,279.8,0.5,1.2,255.5,0.07,14.0,13.1,"11:01:04",1
"22/03/31","11:20",0.0,15.2,92.6,1014.7,351.3,1.1,1.7,344.4,0.04,14.0,13.2,"11:19:58",1
"22/03/31","11:30",0.0,14.3,92.7,1014.9,351.5,2.7,5.7,8.8,0.01,13.2,13.2,"11:25:12",1
"22/03/31","11:40",0.0,14.0,92.5,1014.9,350.5,3.5,5.4,342.8,0.02,12.8,13.1,"11:32:56",1
"22/03/31","11:50",0.0,13.8,92.5,1015.2,343.3,4.1,7.0,327.5,0.04,12.6,13.0,"11:42:26",1
"22/03/31","12:00",0.0,13.8,92.1,1014.7,337.9,4.0,6.5,345.7,0.07,12.6,13.0,"11:50:16",1
"22/03/31","12:10",0.0,13.8,91.5,1015.2,343.7,4.9,7.9,346.6,0.15,12.5,13.2,"12:08:56",1
"22/03/31","12:20",0.0,13.6,90.5,1014.9,342.3,4.7,8.8,347.2,0.15,12.1,13.4,"12:11:04",1
"22/03/31","12:30",0.0,13.4,90.1,1014.9,346.5,4.2,9.1,321.8,0.11,11.9,13.1,"12:24:32",1
"22/03/31","12:40",0.0,13.3,89.4,1015.2,347.9,4.1,8.0,334.6,0.10,11.6,13.1,"12:37:04",1
"22/03/31","12:50",0.0,13.4,89.1,1014.9,344.7,4.4,8.1,340.8,0.16,11.7,13.1,"12:49:52",1
"22/03/31","13:00",0.0,13.6,87.5,1014.9,331.9,6.2,10.0,339.4,0.22,11.6,13.2,"12:50:40",1
"22/03/31","13:10",0.0,13.8,86.0,1014.7,321.1,5.5,9.6,330.0,0.24,11.5,13.1,"13:00:56",1
"22/03/31","13:20",0.0,14.1,84.6,1014.7,326.0,4.2,6.5,357.8,0.19,11.6,13.2,"13:12:24",1
"22/03/31","13:30",0.0,14.4,83.6,1014.7,324.9,4.1,8.2,341.4,0.23,11.7,13.3,"13:20:02",1
"22/03/31","13:40",0.0,14.1,82.4,1014.9,311.7,5.7,7.8,327.2,0.25,11.2,13.2,"13:37:12",1
"22/03/31","13:50",0.0,14.0,81.9,1015.2,309.8,5.4,9.1,331.5,0.23,11.0,13.1,"13:45:28",1
"22/03/31","14:00",0.0,13.7,81.9,1014.7,322.3,5.4,10.2,324.6,0.17,10.7,13.3,"13:55:04",1
"22/03/31","14:10",0.0,13.5,82.4,1014.9,333.1,3.6,7.2,342.1,0.15,10.6,13.3,"14:02:00",1
"22/03/31","14:20",0.0,13.6,82.5,1014.7,332.8,4.0,7.8,333.2,0.23,10.7,13.3,"14:13:04",1
"22/03/31","14:30",0.0,13.3,82.0,1014.5,335.0,4.2,7.8,340.7,0.22,10.3,13.2,"14:25:28",1
"22/03/31","14:40",0.0,13.0,82.3,1014.2,348.7,3.1,4.9,345.3,0.15,10.1,13.3,"14:33:36",1
"22/03/31","14:50",0.0,12.7,82.6,1014.7,340.6,3.9,8.8,332.3,0.13,9.9,13.2,"14:48:40",1
"22/03/31","15:00",0.0,12.5,83.0,1014.5,348.0,3.1,7.4,344.3,0.09,9.7,13.3,"14:50:16",1
"22/03/31","15:10",0.0,12.7,83.4,1014.2,339.4,3.6,6.5,323.0,0.13,10.0,13.3,"15:05:20",1
"22/03/31","15:20",0.0,12.4,83.1,1014.5,327.3,5.2,8.7,346.7,0.15,9.7,13.3,"15:11:28",1
"22/03/31","15:30",0.0,12.1,83.1,1014.5,347.5,3.9,7.4,332.3,0.10,9.4,13.1,"15:24:40",1
"22/03/31","15:40",0.0,12.1,83.3,1014.2,335.9,4.0,7.2,338.3,0.09,9.4,13.5,"15:38:24",1
"22/03/31","15:50",0.0,11.9,83.6,1014.2,345.2,3.6,6.0,354.6,0.07,9.3,13.4,"15:43:52",1
"22/03/31","16:00",0.0,11.8,84.0,1014.0,341.5,3.1,6.4,341.7,0.08,9.2,13.3,"15:58:32",1
"22/03/31","16:10",0.0,11.6,84.0,1014.5,346.1,3.6,6.6,334.8,0.04,9.0,13.3,"16:09:12",1
"22/03/31","16:20",0.0,11.6,84.2,1014.5,341.6,2.6,5.2,352.5,0.04,9.1,13.2,"16:16:56",1
"22/03/31","16:30",0.0,11.3,83.9,1014.2,342.4,4.0,8.1,346.5,0.02,8.7,13.3,"16:21:52",1
"22/03/31","16:40",0.0,11.4,83.5,1014.0,359.7,2.3,3.9,17.9,0.02,8.7,13.2,"16:39:28",1
"22/03/31","16:50",0.0,11.3,83.5,1014.2,340.8,3.6,7.4,345.9,0.03,8.6,13.2,"16:43:20",1
"22/03/31","17:00",0.0,11.2,83.6,1014.5,332.4,2.8,5.0,323.7,0.02,8.6,13.1,"16:51:52",1
"22/03/31","17:10",0.0,11.1,83.4,1014.5,341.8,3.0,7.0,326.8,0.01,8.4,13.2,"17:07:46",1
"22/03/31","17:20",0.0,11.1,83.3,1015.2,340.0,3.2,6.7,307.4,0.00,8.4,13.1,"17:13:28",1
"22/03/31","17:30",0.0,11.1,83.1,1014.9,346.8,2.5,4.7,346.6,0.00,8.4,13.0,"17:22:22",1
"22/03/31","17:40",0.0,11.0,83.0,1015.2,345.1,2.6,4.4,340.6,0.00,8.3,13.2,"17:34:10",1
"22/03/31","17:50",0.0,10.9,83.1,1015.2,339.6,3.2,5.9,326.5,0.00,8.2,13.1,"17:43:32",1
"22/03/31","18:00",0.0,10.9,83.4,1015.6,335.7,3.7,8.8,347.2,0.00,8.2,13.1,"17:50:48",1
"22/03/31","18:10",0.0,10.8,83.6,1014.7,332.0,3.7,7.5,315.9,0.00,8.2,13.1,"18:09:54",1
"22/03/31","18:20",0.0,10.7,83.8,1014.9,339.8,3.9,7.7,330.7,0.00,8.1,13.2,"18:18:40",1
"22/03/31","18:30",0.0,10.7,83.8,1015.6,327.7,3.2,5.2,304.8,0.00,8.1,13.0,"18:20:32",1
"22/03/31","18:40",0.0,10.8,83.4,1014.7,333.8,3.4,6.8,329.0,0.00,8.1,13.1,"18:36:20",1
"22/03/31","18:50",0.0,10.8,82.7,1015.2,328.3,2.7,5.1,330.1,0.00,8.0,13.1,"18:45:52",1
"22/03/31","19:00",0.0,10.7,82.0,1015.2,332.6,3.9,10.5,319.0,0.00,7.8,13.0,"18:59:48",1
"22/03/31","19:10",0.0,10.7,81.6,1015.6,342.1,3.6,6.7,316.9,0.00,7.7,13.2,"19:04:42",1
"22/03/31","19:20",0.0,10.6,81.2,1015.2,343.8,3.0,5.4,313.1,0.00,7.6,13.1,"19:12:32",1
"22/03/31","19:30",0.0,10.5,80.8,1015.6,335.2,4.1,7.7,305.4,0.00,7.4,12.9,"19:26:56",1
"22/03/31","19:40",0.0,10.5,80.3,1015.9,346.7,4.2,7.9,345.1,0.00,7.3,12.8,"19:39:00",1
"22/03/31","19:50",0.0,10.3,80.1,1015.4,341.3,4.5,8.2,333.5,0.00,7.1,12.7,"19:45:20",1
"22/03/31","20:00",0.0,10.3,80.1,1015.6,333.0,3.7,6.8,340.4,0.00,7.1,12.8,"19:52:16",1
"22/03/31","20:10",0.0,10.2,80.3,1015.9,337.3,4.2,9.7,321.3,0.00,7.0,13.0,"20:00:56",1
"22/03/31","20:20",0.0,10.2,80.1,1016.1,338.0,3.9,6.8,340.8,0.00,7.0,12.7,"20:10:56",1
"22/03/31","20:30",0.0,10.2,80.0,1015.9,336.9,3.0,5.1,345.7,0.00,6.9,12.7,"20:29:12",1
"22/03/31","20:40",0.0,10.2,79.6,1015.9,345.4,2.7,5.1,347.9,0.00,6.9,12.7,"20:35:06",1
"22/03/31","20:50",0.0,10.2,79.4,1016.4,326.5,3.6,6.4,309.3,0.00,6.8,12.7,"20:49:52",1
"22/03/31","21:00",0.0,10.2,79.1,1016.8,325.9,3.7,6.6,329.9,0.00,6.8,12.7,"20:50:48",1
"22/03/31","21:10",0.0,10.2,79.3,1017.1,341.5,3.5,7.3,340.7,0.00,6.8,12.7,"21:04:56",1
"22/03/31","21:20",0.0,10.2,79.3,1016.8,333.7,3.2,6.8,347.1,0.00,6.8,12.6,"21:14:24",1
"22/03/31","21:30",0.0,10.2,78.8,1016.8,313.0,4.1,6.3,314.8,0.00,6.7,12.5,"21:23:20",1
"22/03/31","21:40",0.0,10.2,78.6,1016.4,320.4,2.3,4.9,310.2,0.00,6.7,12.5,"21:31:28",1
"22/03/31","21:50",0.0,10.2,78.7,1016.6,316.5,1.8,3.4,324.8,0.00,6.7,12.6,"21:48:00",1
"22/03/31","22:00",0.0,10.1,78.8,1016.8,309.1,3.5,6.4,331.2,0.00,6.6,12.5,"21:59:28",1
"22/03/31","22:10",0.0,10.1,78.8,1016.8,310.8,4.1,10.2,359.6,0.00,6.6,12.6,"22:06:32",1
"22/03/31","22:20",0.0,10.1,78.6,1016.8,293.1,3.6,5.7,308.5,0.00,6.6,12.4,"22:11:44",1
"22/03/31","22:30",0.0,10.0,78.8,1017.3,304.0,4.0,6.2,313.8,0.00,6.5,12.4,"22:26:24",1
"22/03/31","22:40",0.0,9.8,79.8,1016.8,292.5,2.8,4.4,298.9,0.00,6.5,12.4,"22:32:12",1
"22/03/31","22:50",0.0,9.5,81.1,1017.3,328.0,2.9,2.9,328.0,0.00,6.5,12.5,"22:49:28",1
"22/03/31","23:00",0.2,9.3,82.5,1017.1,319.4,2.7,4.0,305.2,0.00,6.5,12.2,"22:53:00",1
"22/03/31","23:10",0.0,9.2,83.9,1017.1,334.3,2.2,3.3,342.6,0.00,6.7,12.2,"23:05:00",1
"22/03/31","23:20",0.2,9.0,85.2,1017.3,318.3,2.3,4.7,320.0,0.00,6.7,12.1,"23:17:20",1
"22/03/31","23:30",0.0,9.0,86.2,1017.1,314.9,2.1,3.2,326.4,0.00,6.9,12.3,"23:21:22",1
"22/03/31","23:40",0.0,8.8,87.1,1016.8,306.5,1.8,2.7,314.7,0.00,6.8,12.2,"23:39:16",1
"22/03/31","23:50",0.2,8.7,88.0,1016.8,299.9,1.8,2.9,322.4,0.00,6.9,12.2,"23:42:32",1
"22/03/31","24:00",0.0,8.7,88.7,1017.1,292.9,1.8,3.3,244.5,0.00,7.0,12.1,"23:51:12",1
